Year,Month,Day,Hour,Minute,Value (Times are PST for temperature in C)
2006,08,25,00,00,14.40
2006,08,25,00,01,14.40
2006,08,25,00,02,14.40
2006,08,25,00,03,14.30
2006,08,25,00,04,14.30
2006,08,25,00,05,14.30
2006,08,25,00,06,14.30
2006,08,25,00,07,14.30
2006,08,25,00,08,14.20
2006,08,25,00,09,14.20
2006,08,25,00,10,14.20
2006,08,25,00,11,14.10
2006,08,25,00,12,14.10
2006,08,25,00,13,14.10
2006,08,25,00,14,14.10
2006,08,25,00,15,14.00
2006,08,25,00,16,14.00
2006,08,25,00,17,13.90
2006,08,25,00,18,13.90
2006,08,25,00,19,13.90
2006,08,25,00,20,13.80
2006,08,25,00,21,13.80
2006,08,25,00,22,13.80
2006,08,25,00,23,13.80
2006,08,25,00,24,13.80
2006,08,25,00,25,13.80
2006,08,25,00,26,13.90
2006,08,25,00,27,13.90
2006,08,25,00,28,13.90
2006,08,25,00,29,13.90
2006,08,25,00,30,13.90
2006,08,25,00,31,13.90
2006,08,25,00,32,13.90
2006,08,25,00,33,13.90
2006,08,25,00,34,13.90
2006,08,25,00,35,13.90
2006,08,25,00,36,13.90
2006,08,25,00,37,13.90
2006,08,25,00,38,13.90
2006,08,25,00,39,13.90
2006,08,25,00,40,13.90
2006,08,25,00,41,13.80
2006,08,25,00,42,13.80
2006,08,25,00,43,13.80
2006,08,25,00,44,13.80
2006,08,25,00,45,13.80
2006,08,25,00,46,13.80
2006,08,25,00,47,13.80
2006,08,25,00,48,13.80
2006,08,25,00,49,13.80
2006,08,25,00,50,13.80
2006,08,25,00,51,13.80
2006,08,25,00,52,13.80
2006,08,25,00,53,13.80
2006,08,25,00,54,13.80
2006,08,25,00,55,13.70
2006,08,25,00,56,13.70
2006,08,25,00,57,13.70
2006,08,25,00,58,13.70
2006,08,25,00,59,13.60
2006,08,25,01,00,13.60
2006,08,25,01,01,13.60
2006,08,25,01,02,13.60
2006,08,25,01,03,13.50
2006,08,25,01,04,13.50
2006,08,25,01,05,13.50
2006,08,25,01,06,13.50
2006,08,25,01,07,13.40
2006,08,25,01,08,13.40
2006,08,25,01,09,13.40
2006,08,25,01,10,13.40
2006,08,25,01,11,13.30
2006,08,25,01,12,13.30
2006,08,25,01,13,13.30
2006,08,25,01,14,13.30
2006,08,25,01,15,13.30
2006,08,25,01,16,13.30
2006,08,25,01,17,13.30
2006,08,25,01,18,13.20
2006,08,25,01,19,13.20
2006,08,25,01,20,13.20
2006,08,25,01,21,13.20
2006,08,25,01,22,13.20
2006,08,25,01,23,13.20
2006,08,25,01,24,13.20
2006,08,25,01,25,13.20
2006,08,25,01,26,13.10
2006,08,25,01,27,13.10
2006,08,25,01,28,13.10
2006,08,25,01,29,13.10
2006,08,25,01,30,13.10
2006,08,25,01,31,13.10
2006,08,25,01,32,13.10
2006,08,25,01,33,13.10
2006,08,25,01,34,13.10
2006,08,25,01,35,13.00
2006,08,25,01,36,13.00
2006,08,25,01,37,13.00
2006,08,25,01,38,13.00
2006,08,25,01,39,13.00
2006,08,25,01,40,13.00
2006,08,25,01,41,13.00
2006,08,25,01,42,13.00
2006,08,25,01,43,13.00
2006,08,25,01,44,13.00
2006,08,25,01,45,13.00
2006,08,25,01,46,13.00
2006,08,25,01,47,12.90
2006,08,25,01,48,12.90
2006,08,25,01,49,12.90
2006,08,25,01,50,12.90
2006,08,25,01,51,12.90
2006,08,25,01,52,12.90
2006,08,25,01,53,12.80
2006,08,25,01,54,12.80
2006,08,25,01,55,12.80
2006,08,25,01,56,12.80
2006,08,25,01,57,12.80
2006,08,25,01,58,12.80
2006,08,25,01,59,12.80
2006,08,25,02,00,12.80
2006,08,25,02,01,12.80
2006,08,25,02,02,12.80
2006,08,25,02,03,12.70
2006,08,25,02,04,12.70
2006,08,25,02,05,12.70
2006,08,25,02,06,12.70
2006,08,25,02,07,12.60
2006,08,25,02,08,12.60
2006,08,25,02,09,12.60
2006,08,25,02,10,12.60
2006,08,25,02,11,12.50
2006,08,25,02,12,12.50
2006,08,25,02,13,12.50
2006,08,25,02,14,12.40
2006,08,25,02,15,12.40
2006,08,25,02,16,12.40
2006,08,25,02,17,12.40
2006,08,25,02,18,12.40
2006,08,25,02,19,12.40
2006,08,25,02,20,12.40
2006,08,25,02,21,12.40
2006,08,25,02,22,12.40
2006,08,25,02,23,12.40
2006,08,25,02,24,12.40
2006,08,25,02,25,12.30
2006,08,25,02,26,12.30
2006,08,25,02,27,12.30
2006,08,25,02,28,12.30
2006,08,25,02,29,12.30
2006,08,25,02,30,12.30
2006,08,25,02,31,12.20
2006,08,25,02,32,12.20
2006,08,25,02,33,12.20
2006,08,25,02,34,12.20
2006,08,25,02,35,12.20
2006,08,25,02,36,12.20
2006,08,25,02,37,12.20
2006,08,25,02,38,12.20
2006,08,25,02,39,12.20
2006,08,25,02,40,12.20
2006,08,25,02,41,12.20
2006,08,25,02,42,12.20
2006,08,25,02,43,12.20
2006,08,25,02,44,12.20
2006,08,25,02,45,12.20
2006,08,25,02,46,12.20
2006,08,25,02,47,12.10
2006,08,25,02,48,12.10
2006,08,25,02,49,12.10
2006,08,25,02,50,12.10
2006,08,25,02,51,12.10
2006,08,25,02,52,12.10
2006,08,25,02,53,12.10
2006,08,25,02,54,12.10
2006,08,25,02,55,12.10
2006,08,25,02,56,12.10
2006,08,25,02,57,12.10
2006,08,25,02,58,12.10
2006,08,25,02,59,12.10
2006,08,25,03,00,12.10
2006,08,25,03,01,12.10
2006,08,25,03,02,12.10
2006,08,25,03,03,12.10
2006,08,25,03,04,12.10
2006,08,25,03,05,12.10
2006,08,25,03,06,12.00
2006,08,25,03,07,12.00
2006,08,25,03,08,12.00
2006,08,25,03,09,12.00
2006,08,25,03,10,11.90
2006,08,25,03,11,11.90
2006,08,25,03,12,11.90
2006,08,25,03,13,11.90
2006,08,25,03,14,11.90
2006,08,25,03,15,11.90
2006,08,25,03,16,11.90
2006,08,25,03,17,11.90
2006,08,25,03,18,11.90
2006,08,25,03,19,11.90
2006,08,25,03,20,11.90
2006,08,25,03,21,11.90
2006,08,25,03,22,11.90
2006,08,25,03,23,11.90
2006,08,25,03,24,11.90
2006,08,25,03,25,11.90
2006,08,25,03,26,11.90
2006,08,25,03,27,11.90
2006,08,25,03,28,11.90
2006,08,25,03,29,11.90
2006,08,25,03,30,11.90
2006,08,25,03,31,11.90
2006,08,25,03,32,11.90
2006,08,25,03,33,11.80
2006,08,25,03,34,11.80
2006,08,25,03,35,11.80
2006,08,25,03,36,11.80
2006,08,25,03,37,11.80
2006,08,25,03,38,11.80
2006,08,25,03,39,11.70
2006,08,25,03,40,11.70
2006,08,25,03,41,11.70
2006,08,25,03,42,11.70
2006,08,25,03,43,11.60
2006,08,25,03,44,11.60
2006,08,25,03,45,11.60
2006,08,25,03,46,11.60
2006,08,25,03,47,11.60
2006,08,25,03,48,11.60
2006,08,25,03,49,11.60
2006,08,25,03,50,11.50
2006,08,25,03,51,11.50
2006,08,25,03,52,11.40
2006,08,25,03,53,11.40
2006,08,25,03,54,11.40
2006,08,25,03,55,11.40
2006,08,25,03,56,11.40
2006,08,25,03,57,11.40
2006,08,25,03,58,11.40
2006,08,25,03,59,11.40
2006,08,25,04,00,11.30
2006,08,25,04,01,11.30
2006,08,25,04,02,11.30
2006,08,25,04,03,11.30
2006,08,25,04,04,11.30
2006,08,25,04,05,11.30
2006,08,25,04,06,11.30
2006,08,25,04,07,11.20
2006,08,25,04,08,11.20
2006,08,25,04,09,11.20
2006,08,25,04,10,11.20
2006,08,25,04,11,11.10
2006,08,25,04,12,11.10
2006,08,25,04,13,11.10
2006,08,25,04,14,11.00
2006,08,25,04,15,11.00
2006,08,25,04,16,11.10
2006,08,25,04,17,11.10
2006,08,25,04,18,11.10
2006,08,25,04,19,11.10
2006,08,25,04,20,11.10
2006,08,25,04,21,11.10
2006,08,25,04,22,11.10
2006,08,25,04,23,11.00
2006,08,25,04,24,11.00
2006,08,25,04,25,11.00
2006,08,25,04,26,11.00
2006,08,25,04,27,11.00
2006,08,25,04,28,10.90
2006,08,25,04,29,10.90
2006,08,25,04,30,10.90
2006,08,25,04,31,10.90
2006,08,25,04,32,10.90
2006,08,25,04,33,10.80
2006,08,25,04,34,10.80
2006,08,25,04,35,10.80
2006,08,25,04,36,10.80
2006,08,25,04,37,10.80
2006,08,25,04,38,10.80
2006,08,25,04,39,10.80
2006,08,25,04,40,10.80
2006,08,25,04,41,10.80
2006,08,25,04,42,10.70
2006,08,25,04,43,10.70
2006,08,25,04,44,10.70
2006,08,25,04,45,10.70
2006,08,25,04,46,10.70
2006,08,25,04,47,10.70
2006,08,25,04,48,10.60
2006,08,25,04,49,10.60
2006,08,25,04,50,10.60
2006,08,25,04,51,10.60
2006,08,25,04,52,10.60
2006,08,25,04,53,10.60
2006,08,25,04,54,10.60
2006,08,25,04,55,10.60
2006,08,25,04,56,10.50
2006,08,25,04,57,10.50
2006,08,25,04,58,10.50
2006,08,25,04,59,10.50
2006,08,25,05,00,10.50
2006,08,25,05,01,10.50
2006,08,25,05,02,10.50
2006,08,25,05,03,10.50
2006,08,25,05,04,10.50
2006,08,25,05,05,10.40
2006,08,25,05,06,10.40
2006,08,25,05,07,10.40
2006,08,25,05,08,10.40
2006,08,25,05,09,10.40
2006,08,25,05,10,10.40
2006,08,25,05,11,10.40
2006,08,25,05,12,10.40
2006,08,25,05,13,10.40
2006,08,25,05,14,10.40
2006,08,25,05,15,10.40
2006,08,25,05,16,10.40
2006,08,25,05,17,10.30
2006,08,25,05,18,10.30
2006,08,25,05,19,10.30
2006,08,25,05,20,10.30
2006,08,25,05,21,10.30
2006,08,25,05,22,10.30
2006,08,25,05,23,10.30
2006,08,25,05,24,10.30
2006,08,25,05,25,10.30
2006,08,25,05,26,10.30
2006,08,25,05,27,10.30
2006,08,25,05,28,10.30
2006,08,25,05,29,10.30
2006,08,25,05,30,10.30
2006,08,25,05,31,10.30
2006,08,25,05,32,10.30
2006,08,25,05,33,10.30
2006,08,25,05,34,10.30
2006,08,25,05,35,10.30
2006,08,25,05,36,10.20
2006,08,25,05,37,10.20
2006,08,25,05,38,10.20
2006,08,25,05,39,10.20
2006,08,25,05,40,10.20
2006,08,25,05,41,10.20
2006,08,25,05,42,10.20
2006,08,25,05,43,10.20
2006,08,25,05,44,10.20
2006,08,25,05,45,10.20
2006,08,25,05,46,10.20
2006,08,25,05,47,10.30
2006,08,25,05,48,10.30
2006,08,25,05,49,10.30
2006,08,25,05,50,10.30
2006,08,25,05,51,10.30
2006,08,25,05,52,10.30
2006,08,25,05,53,10.30
2006,08,25,05,54,10.30
2006,08,25,05,55,10.30
2006,08,25,05,56,10.20
2006,08,25,05,57,10.20
2006,08,25,05,58,10.20
2006,08,25,05,59,10.20
2006,08,25,06,00,10.20
2006,08,25,06,01,10.20
2006,08,25,06,02,10.20
2006,08,25,06,03,10.10
2006,08,25,06,04,10.10
2006,08,25,06,05,10.10
2006,08,25,06,06,10.10
2006,08,25,06,07,10.10
2006,08,25,06,08,10.10
2006,08,25,06,09,10.10
2006,08,25,06,10,10.10
2006,08,25,06,11,10.10
2006,08,25,06,12,10.10
2006,08,25,06,13,10.10
2006,08,25,06,14,10.10
2006,08,25,06,15,10.10
2006,08,25,06,16,10.10
2006,08,25,06,17,10.10
2006,08,25,06,18,10.00
2006,08,25,06,19,10.00
2006,08,25,06,20,10.00
2006,08,25,06,21,10.00
2006,08,25,06,22,10.00
2006,08,25,06,23,9.90
2006,08,25,06,24,9.90
2006,08,25,06,25,9.90
2006,08,25,06,26,9.90
2006,08,25,06,27,9.90
2006,08,25,06,28,9.90
2006,08,25,06,29,9.90
2006,08,25,06,30,9.90
2006,08,25,06,31,9.90
2006,08,25,06,32,9.90
2006,08,25,06,33,9.90
2006,08,25,06,34,9.90
2006,08,25,06,35,9.90
2006,08,25,06,36,9.90
2006,08,25,06,37,9.90
2006,08,25,06,38,9.90
2006,08,25,06,39,9.90
2006,08,25,06,40,9.90
2006,08,25,06,41,9.90
2006,08,25,06,42,9.90
2006,08,25,06,43,9.90
2006,08,25,06,44,9.90
2006,08,25,06,45,9.90
2006,08,25,06,46,9.90
2006,08,25,06,47,9.90
2006,08,25,06,48,9.90
2006,08,25,06,49,9.90
2006,08,25,06,50,9.90
2006,08,25,06,51,9.90
2006,08,25,06,52,9.90
2006,08,25,06,53,9.90
2006,08,25,06,54,9.90
2006,08,25,06,55,9.90
2006,08,25,06,56,9.90
2006,08,25,06,57,10.00
2006,08,25,06,58,10.00
2006,08,25,06,59,10.00
2006,08,25,07,00,10.00
2006,08,25,07,01,10.10
2006,08,25,07,02,10.10
2006,08,25,07,03,10.10
2006,08,25,07,04,10.10
2006,08,25,07,05,10.10
2006,08,25,07,06,10.10
2006,08,25,07,07,10.20
2006,08,25,07,08,10.20
2006,08,25,07,09,10.20
2006,08,25,07,10,10.30
2006,08,25,07,11,10.30
2006,08,25,07,12,10.40
2006,08,25,07,13,10.50
2006,08,25,07,14,10.60
2006,08,25,07,15,10.70
2006,08,25,07,16,10.80
2006,08,25,07,17,10.80
2006,08,25,07,18,10.90
2006,08,25,07,19,11.00
2006,08,25,07,20,11.00
2006,08,25,07,21,11.10
2006,08,25,07,22,11.10
2006,08,25,07,23,11.10
2006,08,25,07,24,11.20
2006,08,25,07,25,11.20
2006,08,25,07,26,11.30
2006,08,25,07,27,11.30
2006,08,25,07,28,11.40
2006,08,25,07,29,11.40
2006,08,25,07,30,11.50
2006,08,25,07,31,11.50
2006,08,25,07,32,11.60
2006,08,25,07,33,11.70
2006,08,25,07,34,11.80
2006,08,25,07,35,11.80
2006,08,25,07,36,11.90
2006,08,25,07,37,12.10
2006,08,25,07,38,12.10
2006,08,25,07,39,12.20
2006,08,25,07,40,12.30
2006,08,25,07,41,12.50
2006,08,25,07,42,12.60
2006,08,25,07,43,12.70
2006,08,25,07,44,12.80
2006,08,25,07,45,12.90
2006,08,25,07,46,13.00
2006,08,25,07,47,13.10
2006,08,25,07,48,13.20
2006,08,25,07,49,13.30
2006,08,25,07,50,13.40
2006,08,25,07,51,13.40
2006,08,25,07,52,13.50
2006,08,25,07,53,13.60
2006,08,25,07,54,13.70
2006,08,25,07,55,13.70
2006,08,25,07,56,13.80
2006,08,25,07,57,13.90
2006,08,25,07,58,14.10
2006,08,25,07,59,14.20
2006,08,25,08,00,14.30
2006,08,25,08,01,14.40
2006,08,25,08,02,14.50
2006,08,25,08,03,14.60
2006,08,25,08,04,14.80
2006,08,25,08,05,15.00
2006,08,25,08,06,15.00
2006,08,25,08,07,15.00
2006,08,25,08,08,15.20
2006,08,25,08,09,15.30
2006,08,25,08,10,15.40
2006,08,25,08,11,15.50
2006,08,25,08,12,15.70
2006,08,25,08,13,15.80
2006,08,25,08,14,15.80
2006,08,25,08,15,15.90
2006,08,25,08,16,16.00
2006,08,25,08,17,16.10
2006,08,25,08,18,16.20
2006,08,25,08,19,16.20
2006,08,25,08,20,16.30
2006,08,25,08,21,16.30
2006,08,25,08,22,16.40
2006,08,25,08,23,16.50
2006,08,25,08,24,16.50
2006,08,25,08,25,16.50
2006,08,25,08,26,16.60
2006,08,25,08,27,16.60
2006,08,25,08,28,16.60
2006,08,25,08,29,16.60
2006,08,25,08,30,16.70
2006,08,25,08,31,16.80
2006,08,25,08,32,16.90
2006,08,25,08,33,17.00
2006,08,25,08,34,17.20
2006,08,25,08,35,17.30
2006,08,25,08,36,17.40
2006,08,25,08,37,17.50
2006,08,25,08,38,17.70
2006,08,25,08,39,17.80
2006,08,25,08,40,17.80
2006,08,25,08,41,17.90
2006,08,25,08,42,17.90
2006,08,25,08,43,17.90
2006,08,25,08,44,17.90
2006,08,25,08,45,17.80
2006,08,25,08,46,17.80
2006,08,25,08,47,17.70
2006,08,25,08,48,17.70
2006,08,25,08,49,17.70
2006,08,25,08,50,17.60
2006,08,25,08,51,17.60
2006,08,25,08,52,17.60
2006,08,25,08,53,17.60
2006,08,25,08,54,17.60
2006,08,25,08,55,17.60
2006,08,25,08,56,17.50
2006,08,25,08,57,17.60
2006,08,25,08,58,17.60
2006,08,25,08,59,17.60
2006,08,25,09,00,17.60
2006,08,25,09,01,17.60
2006,08,25,09,02,17.60
2006,08,25,09,03,17.60
2006,08,25,09,04,17.60
2006,08,25,09,05,17.60
2006,08,25,09,06,17.70
2006,08,25,09,07,17.70
2006,08,25,09,08,17.80
2006,08,25,09,09,17.80
2006,08,25,09,10,17.80
2006,08,25,09,11,17.90
2006,08,25,09,12,17.90
2006,08,25,09,13,18.00
2006,08,25,09,14,18.10
2006,08,25,09,15,18.20
2006,08,25,09,16,18.20
2006,08,25,09,17,18.20
2006,08,25,09,18,18.20
2006,08,25,09,19,18.30
2006,08,25,09,20,18.40
2006,08,25,09,21,18.40
2006,08,25,09,22,18.40
2006,08,25,09,23,18.40
2006,08,25,09,24,18.50
2006,08,25,09,25,18.50
2006,08,25,09,26,18.50
2006,08,25,09,27,18.60
2006,08,25,09,28,18.60
2006,08,25,09,29,18.60
2006,08,25,09,30,18.60
2006,08,25,09,31,18.60
2006,08,25,09,32,18.60
2006,08,25,09,33,18.60
2006,08,25,09,34,18.70
2006,08,25,09,35,18.70
2006,08,25,09,36,18.70
2006,08,25,09,37,18.60
2006,08,25,09,38,18.60
2006,08,25,09,39,18.60
2006,08,25,09,40,18.70
2006,08,25,09,41,18.60
2006,08,25,09,42,18.50
2006,08,25,09,43,18.50
2006,08,25,09,44,18.40
2006,08,25,09,45,18.40
2006,08,25,09,46,18.40
2006,08,25,09,47,18.50
2006,08,25,09,48,18.50
2006,08,25,09,49,18.70
2006,08,25,09,50,18.80
2006,08,25,09,51,18.80
2006,08,25,09,52,18.80
2006,08,25,09,53,18.80
2006,08,25,09,54,18.80
2006,08,25,09,55,18.80
2006,08,25,09,56,18.80
2006,08,25,09,57,18.80
2006,08,25,09,58,18.80
2006,08,25,09,59,18.80
2006,08,25,10,00,18.80
2006,08,25,10,01,18.90
2006,08,25,10,02,19.00
2006,08,25,10,03,19.10
2006,08,25,10,04,19.20
2006,08,25,10,05,19.20
2006,08,25,10,06,19.20
2006,08,25,10,07,19.00
2006,08,25,10,08,18.90
2006,08,25,10,09,18.80
2006,08,25,10,10,18.80
2006,08,25,10,11,18.90
2006,08,25,10,12,19.00
2006,08,25,10,13,19.10
2006,08,25,10,14,19.20
2006,08,25,10,15,19.40
2006,08,25,10,16,19.50
2006,08,25,10,17,19.70
2006,08,25,10,18,19.70
2006,08,25,10,19,19.70
2006,08,25,10,20,19.70
2006,08,25,10,21,19.60
2006,08,25,10,22,19.50
2006,08,25,10,23,19.40
2006,08,25,10,24,19.30
2006,08,25,10,25,19.30
2006,08,25,10,26,19.20
2006,08,25,10,27,19.20
2006,08,25,10,28,19.20
2006,08,25,10,29,19.20
2006,08,25,10,30,19.20
2006,08,25,10,31,19.20
2006,08,25,10,32,19.10
2006,08,25,10,33,19.10
2006,08,25,10,34,19.10
2006,08,25,10,35,19.10
2006,08,25,10,36,19.10
2006,08,25,10,37,19.20
2006,08,25,10,38,19.20
2006,08,25,10,39,19.30
2006,08,25,10,40,19.30
2006,08,25,10,41,19.30
2006,08,25,10,42,19.40
2006,08,25,10,43,19.50
2006,08,25,10,44,19.60
2006,08,25,10,45,19.60
2006,08,25,10,46,19.70
2006,08,25,10,47,19.70
2006,08,25,10,48,19.80
2006,08,25,10,49,20.00
2006,08,25,10,50,20.10
2006,08,25,10,51,20.30
2006,08,25,10,52,20.40
2006,08,25,10,53,20.50
2006,08,25,10,54,20.60
2006,08,25,10,55,20.60
2006,08,25,10,56,20.70
2006,08,25,10,57,20.70
2006,08,25,10,58,20.80
2006,08,25,10,59,20.80
2006,08,25,11,00,20.80
2006,08,25,11,01,20.80
2006,08,25,11,02,20.90
2006,08,25,11,03,20.90
2006,08,25,11,04,20.90
2006,08,25,11,05,20.80
2006,08,25,11,06,20.80
2006,08,25,11,07,20.80
2006,08,25,11,08,20.70
2006,08,25,11,09,20.70
2006,08,25,11,10,20.60
2006,08,25,11,11,20.60
2006,08,25,11,12,20.50
2006,08,25,11,13,20.50
2006,08,25,11,14,20.40
2006,08,25,11,15,20.40
2006,08,25,11,16,20.20
2006,08,25,11,17,20.10
2006,08,25,11,18,20.00
2006,08,25,11,19,19.90
2006,08,25,11,20,19.90
2006,08,25,11,21,19.90
2006,08,25,11,22,20.00
2006,08,25,11,23,20.10
2006,08,25,11,24,20.20
2006,08,25,11,25,20.20
2006,08,25,11,26,20.20
2006,08,25,11,27,20.30
2006,08,25,11,28,20.30
2006,08,25,11,29,20.40
2006,08,25,11,30,20.50
2006,08,25,11,31,20.50
2006,08,25,11,32,20.40
2006,08,25,11,33,20.40
2006,08,25,11,34,20.40
2006,08,25,11,35,20.30
2006,08,25,11,36,20.30
2006,08,25,11,37,20.30
2006,08,25,11,38,20.30
2006,08,25,11,39,20.40
2006,08,25,11,40,20.50
2006,08,25,11,41,20.60
2006,08,25,11,42,20.70
2006,08,25,11,43,20.80
2006,08,25,11,44,20.80
2006,08,25,11,45,20.80
2006,08,25,11,46,20.80
2006,08,25,11,47,20.80
2006,08,25,11,48,20.80
2006,08,25,11,49,20.80
2006,08,25,11,50,20.90
2006,08,25,11,51,20.80
2006,08,25,11,52,20.90
2006,08,25,11,53,21.00
2006,08,25,11,54,21.10
2006,08,25,11,55,21.10
2006,08,25,11,56,21.20
2006,08,25,11,57,21.20
2006,08,25,11,58,21.30
2006,08,25,11,59,21.30
2006,08,25,12,00,21.10
2006,08,25,12,01,20.90
2006,08,25,12,02,20.70
2006,08,25,12,03,20.50
2006,08,25,12,04,20.40
2006,08,25,12,05,20.40
2006,08,25,12,06,20.40
2006,08,25,12,07,20.50
2006,08,25,12,08,20.60
2006,08,25,12,09,20.70
2006,08,25,12,10,20.70
2006,08,25,12,11,20.80
2006,08,25,12,12,20.80
2006,08,25,12,13,20.90
2006,08,25,12,14,20.80
2006,08,25,12,15,20.70
2006,08,25,12,16,20.50
2006,08,25,12,17,20.40
2006,08,25,12,18,20.40
2006,08,25,12,19,20.40
2006,08,25,12,20,20.40
2006,08,25,12,21,20.50
2006,08,25,12,22,20.60
2006,08,25,12,23,20.60
2006,08,25,12,24,20.60
2006,08,25,12,25,20.70
2006,08,25,12,26,20.80
2006,08,25,12,27,20.80
2006,08,25,12,28,20.80
2006,08,25,12,29,20.80
2006,08,25,12,30,20.80
2006,08,25,12,31,20.70
2006,08,25,12,32,20.60
2006,08,25,12,33,20.60
2006,08,25,12,34,20.70
2006,08,25,12,35,20.80
2006,08,25,12,36,21.00
2006,08,25,12,37,21.10
2006,08,25,12,38,21.20
2006,08,25,12,39,21.30
2006,08,25,12,40,21.50
2006,08,25,12,41,21.60
2006,08,25,12,42,21.70
2006,08,25,12,43,21.80
2006,08,25,12,44,21.90
2006,08,25,12,45,21.90
2006,08,25,12,46,22.00
2006,08,25,12,47,22.00
2006,08,25,12,48,22.00
2006,08,25,12,49,22.00
2006,08,25,12,50,22.00
2006,08,25,12,51,22.00
2006,08,25,12,52,22.10
2006,08,25,12,53,22.00
2006,08,25,12,54,21.90
2006,08,25,12,55,22.00
2006,08,25,12,56,22.10
2006,08,25,12,57,22.20
2006,08,25,12,58,22.20
2006,08,25,12,59,22.20
2006,08,25,13,00,22.10
2006,08,25,13,01,22.00
2006,08,25,13,02,22.00
2006,08,25,13,03,22.10
2006,08,25,13,04,22.10
2006,08,25,13,05,22.10
2006,08,25,13,06,22.10
2006,08,25,13,07,22.10
2006,08,25,13,08,22.10
2006,08,25,13,09,22.20
2006,08,25,13,10,22.30
2006,08,25,13,11,22.40
2006,08,25,13,12,22.60
2006,08,25,13,13,22.60
2006,08,25,13,14,22.70
2006,08,25,13,15,22.70
2006,08,25,13,16,22.70
2006,08,25,13,17,22.60
2006,08,25,13,18,22.50
2006,08,25,13,19,22.40
2006,08,25,13,20,22.30
2006,08,25,13,21,22.30
2006,08,25,13,22,22.30
2006,08,25,13,23,22.30
2006,08,25,13,24,22.30
2006,08,25,13,25,22.30
2006,08,25,13,26,22.40
2006,08,25,13,27,22.60
2006,08,25,13,28,22.80
2006,08,25,13,29,22.90
2006,08,25,13,30,23.00
2006,08,25,13,31,23.00
2006,08,25,13,32,23.00
2006,08,25,13,33,22.90
2006,08,25,13,34,22.90
2006,08,25,13,35,22.80
2006,08,25,13,36,22.70
2006,08,25,13,37,22.80
2006,08,25,13,38,22.90
2006,08,25,13,39,22.90
2006,08,25,13,40,23.00
2006,08,25,13,41,23.00
2006,08,25,13,42,22.90
2006,08,25,13,43,22.80
2006,08,25,13,44,22.80
2006,08,25,13,45,22.80
2006,08,25,13,46,22.90
2006,08,25,13,47,22.90
2006,08,25,13,48,23.00
2006,08,25,13,49,23.10
2006,08,25,13,50,23.10
2006,08,25,13,51,23.20
2006,08,25,13,52,23.10
2006,08,25,13,53,23.10
2006,08,25,13,54,23.00
2006,08,25,13,55,22.90
2006,08,25,13,56,23.00
2006,08,25,13,57,23.10
2006,08,25,13,58,23.00
2006,08,25,13,59,23.00
2006,08,25,14,00,22.90
2006,08,25,14,01,22.80
2006,08,25,14,02,22.70
2006,08,25,14,03,22.50
2006,08,25,14,04,22.40
2006,08,25,14,05,22.40
2006,08,25,14,06,22.40
2006,08,25,14,07,22.30
2006,08,25,14,08,22.30
2006,08,25,14,09,22.40
2006,08,25,14,10,22.50
2006,08,25,14,11,22.50
2006,08,25,14,12,22.50
2006,08,25,14,13,22.50
2006,08,25,14,14,22.50
2006,08,25,14,15,22.50
2006,08,25,14,16,22.50
2006,08,25,14,17,22.60
2006,08,25,14,18,22.60
2006,08,25,14,19,22.70
2006,08,25,14,20,22.60
2006,08,25,14,21,22.40
2006,08,25,14,22,22.30
2006,08,25,14,23,22.30
2006,08,25,14,24,22.30
2006,08,25,14,25,22.30
2006,08,25,14,26,22.30
2006,08,25,14,27,22.40
2006,08,25,14,28,22.40
2006,08,25,14,29,22.40
2006,08,25,14,30,22.40
2006,08,25,14,31,22.50
2006,08,25,14,32,22.60
2006,08,25,14,33,22.50
2006,08,25,14,34,22.50
2006,08,25,14,35,22.50
2006,08,25,14,36,22.60
2006,08,25,14,37,22.60
2006,08,25,14,38,22.60
2006,08,25,14,39,22.60
2006,08,25,14,40,22.70
2006,08,25,14,41,22.70
2006,08,25,14,42,22.70
2006,08,25,14,43,22.70
2006,08,25,14,44,22.50
2006,08,25,14,45,22.40
2006,08,25,14,46,22.30
2006,08,25,14,47,22.20
2006,08,25,14,48,22.20
2006,08,25,14,49,22.20
2006,08,25,14,50,22.20
2006,08,25,14,51,22.20
2006,08,25,14,52,22.30
2006,08,25,14,53,22.30
2006,08,25,14,54,22.40
2006,08,25,14,55,22.40
2006,08,25,14,56,22.50
2006,08,25,14,57,22.50
2006,08,25,14,58,22.30
2006,08,25,14,59,22.10
2006,08,25,15,00,22.20
2006,08,25,15,01,22.20
2006,08,25,15,02,22.20
2006,08,25,15,03,22.20
2006,08,25,15,04,22.10
2006,08,25,15,05,22.10
2006,08,25,15,06,22.10
2006,08,25,15,07,22.20
2006,08,25,15,08,22.20
2006,08,25,15,09,22.30
2006,08,25,15,10,22.40
2006,08,25,15,11,22.60
2006,08,25,15,12,22.70
2006,08,25,15,13,22.80
2006,08,25,15,14,22.90
2006,08,25,15,15,23.10
2006,08,25,15,16,23.10
2006,08,25,15,17,23.10
2006,08,25,15,18,23.10
2006,08,25,15,19,23.00
2006,08,25,15,20,23.00
2006,08,25,15,21,23.00
2006,08,25,15,22,23.00
2006,08,25,15,23,23.00
2006,08,25,15,24,23.10
2006,08,25,15,25,23.10
2006,08,25,15,26,23.20
2006,08,25,15,27,23.40
2006,08,25,15,28,23.50
2006,08,25,15,29,23.70
2006,08,25,15,30,23.80
2006,08,25,15,31,23.80
2006,08,25,15,32,23.80
2006,08,25,15,33,23.80
2006,08,25,15,34,23.80
2006,08,25,15,35,23.80
2006,08,25,15,36,23.80
2006,08,25,15,37,23.90
2006,08,25,15,38,24.00
2006,08,25,15,39,24.10
2006,08,25,15,40,24.20
2006,08,25,15,41,24.30
2006,08,25,15,42,24.40
2006,08,25,15,43,24.40
2006,08,25,15,44,24.50
2006,08,25,15,45,24.40
2006,08,25,15,46,24.40
2006,08,25,15,47,24.40
2006,08,25,15,48,24.30
2006,08,25,15,49,24.30
2006,08,25,15,50,24.30
2006,08,25,15,51,24.40
2006,08,25,15,52,24.50
2006,08,25,15,53,24.50
2006,08,25,15,54,24.60
2006,08,25,15,55,24.70
2006,08,25,15,56,24.80
2006,08,25,15,57,24.80
2006,08,25,15,58,24.80
2006,08,25,15,59,24.80
2006,08,25,16,00,24.70
2006,08,25,16,01,24.50
2006,08,25,16,02,24.30
2006,08,25,16,03,24.20
2006,08,25,16,04,24.20
2006,08,25,16,05,24.10
2006,08,25,16,06,24.10
2006,08,25,16,07,24.10
2006,08,25,16,08,24.00
2006,08,25,16,09,23.90
2006,08,25,16,10,23.90
2006,08,25,16,11,24.00
2006,08,25,16,12,24.00
2006,08,25,16,13,24.00
2006,08,25,16,14,24.00
2006,08,25,16,15,24.10
2006,08,25,16,16,24.10
2006,08,25,16,17,24.00
2006,08,25,16,18,23.80
2006,08,25,16,19,23.60
2006,08,25,16,20,23.50
2006,08,25,16,21,23.50
2006,08,25,16,22,23.50
2006,08,25,16,23,23.50
2006,08,25,16,24,23.50
2006,08,25,16,25,23.40
2006,08,25,16,26,23.50
2006,08,25,16,27,23.50
2006,08,25,16,28,23.50
2006,08,25,16,29,23.60
2006,08,25,16,30,23.60
2006,08,25,16,31,23.60
2006,08,25,16,32,23.60
2006,08,25,16,33,23.60
2006,08,25,16,34,23.70
2006,08,25,16,35,23.70
2006,08,25,16,36,23.70
2006,08,25,16,37,23.70
2006,08,25,16,38,23.70
2006,08,25,16,39,23.70
2006,08,25,16,40,23.70
2006,08,25,16,41,23.70
2006,08,25,16,42,23.80
2006,08,25,16,43,23.90
2006,08,25,16,44,24.00
2006,08,25,16,45,24.10
2006,08,25,16,46,24.20
2006,08,25,16,47,24.20
2006,08,25,16,48,24.10
2006,08,25,16,49,24.10
2006,08,25,16,50,24.10
2006,08,25,16,51,24.00
2006,08,25,16,52,23.90
2006,08,25,16,53,23.80
2006,08,25,16,54,23.70
2006,08,25,16,55,23.70
2006,08,25,16,56,23.60
2006,08,25,16,57,23.60
2006,08,25,16,58,23.50
2006,08,25,16,59,23.50
2006,08,25,17,00,23.50
2006,08,25,17,01,23.60
2006,08,25,17,02,23.60
2006,08,25,17,03,23.60
2006,08,25,17,04,23.60
2006,08,25,17,05,23.60
2006,08,25,17,06,23.60
2006,08,25,17,07,23.80
2006,08,25,17,08,23.90
2006,08,25,17,09,23.90
2006,08,25,17,10,23.80
2006,08,25,17,11,23.70
2006,08,25,17,12,23.60
2006,08,25,17,13,23.60
2006,08,25,17,14,23.60
2006,08,25,17,15,23.70
2006,08,25,17,16,23.80
2006,08,25,17,17,23.80
2006,08,25,17,18,23.90
2006,08,25,17,19,23.90
2006,08,25,17,20,23.90